| time (UTC) | temp C | wind direction | speed KPH | gust KPH | rain 1hr cm | rain 24hr cm | rain mn cm | humidity % | barometer mb |
| 20260507141529 | 18 | 57 | 14.5 | 20.9 | 0.00 | 0.00 | 0.00 | 87 | 1009.0 |
| 20260507140033 | 17 | 72 | 16.1 | 20.9 | 0.00 | 0.00 | 0.00 | 87 | 1009.0 |
| 20260507134527 | 17 | 77 | 17.7 | 24.1 | 0.00 | 0.00 | 0.00 | 86 | 1009.1 |
| 20260507133024 | 18 | 47 | 20.9 | 30.6 | 0.00 | 0.00 | 0.00 | 85 | 1009.3 |
| 20260507131524 | 18 | 76 | 19.3 | 27.4 | 0.00 | 0.00 | 0.00 | 84 | 1009.4 |
| 20260507130023 | 18 | 40 | 19.3 | 27.4 | 0.00 | 0.00 | 0.00 | 83 | 1009.7 |
| 20260507124522 | 18 | 82 | 16.1 | 25.7 | 0.00 | 0.00 | 0.00 | 81 | 1009.9 |
| 20260507123024 | 18 | 58 | 20.9 | 27.4 | 0.00 | 0.00 | 0.00 | 80 | 1010.0 |
| 20260507121523 | 18 | 61 | 22.5 | 27.4 | 0.00 | 0.00 | 0.00 | 80 | 1009.9 |
| 20260507120020 | 18 | 56 | 22.5 | 32.2 | 0.00 | 0.00 | 0.00 | 80 | 1009.9 |
| 20260507114519 | 18 | 56 | 22.5 | 29.0 | 0.00 | 0.00 | 0.00 | 83 | 1010.0 |
| 20260507113118 | 18 | 58 | 20.9 | 27.4 | 0.00 | 0.00 | 0.00 | 80 | 1010.4 |
| 20260507111518 | 18 | 49 | 24.1 | 29.0 | 0.00 | 0.00 | 0.00 | 80 | 1010.3 |
| 20260507110016 | 18 | 82 | 20.9 | 30.6 | 0.00 | 0.00 | 0.00 | 81 | 1010.4 |
| 20260507104515 | 18 | 74 | 19.3 | 25.7 | 0.00 | 0.00 | 0.00 | 80 | 1010.6 |
| 20260507103014 | 18 | 63 | 19.3 | 25.7 | 0.00 | 0.00 | 0.00 | 80 | 1010.8 |
| 20260507101514 | 18 | 58 | 17.7 | 30.6 | 0.00 | 0.00 | 0.00 | 81 | 1010.6 |
| 20260507100015 | 18 | 63 | 20.9 | 32.2 | 0.00 | 0.00 | 0.00 | 82 | 1010.6 |
| 20260507094515 | 18 | 43 | 22.5 | 29.0 | 0.00 | 0.00 | 0.00 | 81 | 1010.7 |
| 20260507093015 | 18 | 32 | 20.9 | 30.6 | 0.00 | 0.00 | 0.00 | 82 | 1010.7 |
| 20260507091510 | 18 | 73 | 16.1 | 30.6 | 0.00 | 0.00 | 0.00 | 80 | 1010.8 |
| 20260507090010 | 18 | 69 | 19.3 | 29.0 | 0.00 | 0.00 | 0.00 | 80 | 1010.8 |
| 20260507084529 | 18 | 70 | 22.5 | 25.7 | 0.00 | 0.00 | 0.00 | 78 | 1010.9 |
| 20260507083007 | 18 | 25 | 12.9 | 22.5 | 0.00 | 0.00 | 0.00 | 79 | 1010.7 |
| 20260507081518 | 18 | 70 | 14.5 | 20.9 | 0.00 | 0.00 | 0.00 | 76 | 1010.8 |
| 20260507080005 | 18 | 62 | 12.9 | 24.1 | 0.00 | 0.00 | 0.00 | 76 | 1010.7 |
| 20260507074507 | 18 | 69 | 8.0 | 14.5 | 0.00 | 0.00 | 0.00 | 76 | 1010.6 |
| 20260507073004 | 17 | 55 | 11.3 | 17.7 | 0.00 | 0.00 | 0.00 | 77 | 1010.4 |
| 20260507071503 | 18 | 56 | 11.3 | 20.9 | 0.00 | 0.00 | 0.00 | 76 | 1010.2 |
| 20260507070107 | 17 | 32 | 11.3 | 20.9 | 0.00 | 0.00 | 0.00 | 76 | 1010.0 |
| 20260507064559 | 17 | 45 | 11.3 | 17.7 | 0.00 | 0.00 | 0.00 | 77 | 1010.1 |
| 20260507063057 | 17 | 23 | 11.3 | 17.7 | 0.00 | 0.00 | 0.00 | 80 | 1010.1 |
| 20260507061554 | 16 | 40 | 6.4 | 12.9 | 0.00 | 0.00 | 0.00 | 81 | 1010.0 |
| 20260507060053 | 16 | 18 | 6.4 | 11.3 | 0.00 | 0.00 | 0.00 | 82 | 1010.2 |
| 20260507054609 | 16 | 32 | 8.0 | 14.5 | 0.00 | 0.00 | 0.00 | 83 | 1010.0 |
| 20260507053103 | 17 | 53 | 11.3 | 20.9 | 0.00 | 0.00 | 0.00 | 86 | 1010.0 |
| 20260507051556 | 17 | 56 | 16.1 | 25.7 | 0.00 | 0.00 | 0.00 | 87 | 1009.8 |
| 20260507050054 | 17 | 50 | 11.3 | 24.1 | 0.00 | 0.00 | 0.00 | 88 | 1009.6 |
| 20260507044555 | 17 | 47 | 17.7 | 24.1 | 0.00 | 0.00 | 0.00 | 88 | 1009.6 |
| 20260507043048 | 17 | 68 | 19.3 | 25.7 | 0.00 | 0.00 | 0.00 | 89 | 1009.4 |
| 20260507041559 | 16 | 44 | 17.7 | 27.4 | 0.00 | 0.00 | 0.00 | 88 | 1009.4 |
| 20260507040044 | 16 | 54 | 16.1 | 24.1 | 0.00 | 0.00 | 0.00 | 88 | 1009.3 |
| 20260507034544 | 16 | 68 | 17.7 | 24.1 | 0.00 | 0.00 | 0.00 | 88 | 1009.3 |
| 20260507033043 | 16 | 58 | 16.1 | 24.1 | 0.00 | 0.00 | 0.00 | 89 | 1009.3 |
| 20260507031542 | 16 | 46 | 16.1 | 22.5 | 0.00 | 0.00 | 0.00 | 89 | 1009.5 |
| 20260507030037 | 17 | 63 | 11.3 | 20.9 | 0.00 | 0.00 | 0.00 | 88 | 1009.6 |
| 20260507024635 | 16 | 74 | 11.3 | 17.7 | 0.00 | 0.00 | 0.00 | 87 | 1009.7 |
| 20260507023033 | 16 | 49 | 6.4 | 9.7 | 0.00 | 0.00 | 0.00 | 84 | 1009.9 |
| 20260507021536 | 16 | 44 | 4.8 | 9.7 | 0.00 | 0.00 | 0.00 | 85 | 1010.0 |
| 20260507020030 | 16 | 30 | 3.2 | 8.0 | 0.00 | 0.00 | 0.00 | 83 | 1010.2 |
| 20260507014531 | 16 | 18 | 3.2 | 8.0 | 0.00 | 0.00 | 0.00 | 83 | 1010.3 |
| 20260507013029 | 16 | 21 | 4.8 | 8.0 | 0.00 | 0.00 | 0.00 | 84 | 1010.0 |
| 20260507011527 | 16 | 4 | 3.2 | 8.0 | 0.00 | 0.00 | 0.00 | 83 | 1010.0 |
| 20260507010037 | 16 | 21 | 3.2 | 8.0 | 0.00 | 0.00 | 0.00 | 83 | 1010.1 |
| 20260507004527 | 16 | 27 | 4.8 | 12.9 | 0.00 | 0.00 | 0.00 | 84 | 1010.1 |
| 20260507003023 | 16 | 20 | 4.8 | 9.7 | 0.00 | 0.00 | 0.00 | 84 | 1010.2 |
| 20260507001520 | 16 | 20 | 6.4 | 11.3 | 0.00 | 0.00 | 0.00 | 84 | 1010.4 |
| 20260507000023 | 16 | 35 | 6.4 | 14.5 | 0.00 | 0.00 | 0.00 | 85 | 1010.5 |
| 20260506234516 | 17 | 21 | 8.0 | 14.5 | 0.00 | 0.00 | 0.00 | 85 | 1010.7 |
| 20260506233014 | 17 | 50 | 6.4 | 14.5 | 0.00 | 0.00 | 0.00 | 86 | 1010.6 |
| 20260506231611 | 17 | 67 | 6.4 | 12.9 | 0.00 | 0.00 | 0.00 | 87 | 1010.7 |
| 20260506230009 | 17 | 46 | 8.0 | 11.3 | 0.00 | 0.00 | 0.00 | 87 | 1010.8 |
| 20260506224509 | 17 | 23 | 4.8 | 11.3 | 0.00 | 0.00 | 0.00 | 87 | 1010.7 |
| 20260506223008 | 17 | 65 | 6.4 | 11.3 | 0.00 | 0.00 | 0.00 | 87 | 1010.7 |
| 20260506221510 | 17 | 68 | 8.0 | 12.9 | 0.00 | 0.00 | 0.00 | 87 | 1010.7 |
| 20260506220007 | 17 | 44 | 4.8 | 9.7 | 0.00 | 0.00 | 0.00 | 87 | 1010.9 |
| 20260506214506 | 17 | 61 | 4.8 | 9.7 | 0.00 | 0.00 | 0.00 | 86 | 1011.0 |
| 20260506213005 | 17 | 68 | 4.8 | 9.7 | 0.00 | 0.00 | 0.00 | 86 | 1011.3 |
| 20260506211505 | 17 | 72 | 6.4 | 12.9 | 0.00 | 0.00 | 0.00 | 86 | 1011.2 |
| 20260506210002 | 17 | 92 | 11.3 | 14.5 | 0.00 | 0.00 | 0.00 | 86 | 1011.0 |
| 20260506204601 | 17 | 49 | 8.0 | 11.3 | 0.00 | 0.00 | 0.00 | 86 | 1011.0 |
| 20260506203059 | 17 | 74 | 9.7 | 12.9 | 0.00 | 0.00 | 0.00 | 87 | 1010.8 |
| 20260506201600 | 17 | 63 | 11.3 | 16.1 | 0.00 | 0.00 | 0.00 | 87 | 1010.7 |
| 20260506200057 | 17 | 63 | 11.3 | 17.7 | 0.00 | 0.00 | 0.00 | 86 | 1010.5 |
| 20260506194557 | 17 | 49 | 11.3 | 17.7 | 0.00 | 0.00 | 0.00 | 86 | 1010.2 |
| 20260506193058 | 17 | 62 | 14.5 | 17.7 | 0.00 | 0.00 | 0.00 | 86 | 1010.1 |
| 20260506191601 | 17 | 66 | 16.1 | 22.5 | 0.00 | 0.00 | 0.00 | 86 | 1009.8 |
| 20260506190054 | 17 | 51 | 16.1 | 20.9 | 0.00 | 0.00 | 0.00 | 85 | 1009.8 |
| 20260506184557 | 17 | 75 | 16.1 | 20.9 | 0.00 | 0.00 | 0.00 | 85 | 1009.7 |
| 20260506183102 | 17 | 61 | 14.5 | 20.9 | 0.00 | 0.00 | 0.00 | 85 | 1009.5 |
| 20260506181603 | 17 | 79 | 19.3 | 22.5 | 0.00 | 0.00 | 0.00 | 84 | 1009.6 |
| 20260506180049 | 17 | 58 | 17.7 | 24.1 | 0.00 | 0.00 | 0.00 | 85 | 1009.4 |
| 20260506174550 | 17 | 76 | 20.9 | 27.4 | 0.00 | 0.00 | 0.00 | 84 | 1009.6 |
| 20260506173116 | 17 | 59 | 19.3 | 25.7 | 0.00 | 0.00 | 0.00 | 85 | 1009.4 |
| 20260506171547 | 17 | 49 | 20.9 | 29.0 | 0.00 | 0.00 | 0.00 | 85 | 1009.5 |
| 20260506170103 | 18 | 68 | 20.9 | 27.4 | 0.00 | 0.00 | 0.00 | 84 | 1009.3 |
| 20260506164546 | 18 | 61 | 20.9 | 29.0 | 0.00 | 0.00 | 0.00 | 83 | 1009.3 |
| 20260506163054 | 18 | 79 | 20.9 | 30.6 | 0.00 | 0.00 | 0.00 | 82 | 1009.2 |
| 20260506161546 | 18 | 56 | 22.5 | 30.6 | 0.00 | 0.00 | 0.00 | 83 | 1009.3 |
| 20260506160045 | 18 | 63 | 24.1 | 32.2 | 0.00 | 0.00 | 0.00 | 83 | 1009.2 |
| 20260506154600 | 18 | 45 | 24.1 | 30.6 | 0.00 | 0.00 | 0.00 | 82 | 1009.2 |
| 20260506153040 | 18 | 58 | 25.7 | 32.2 | 0.00 | 0.00 | 0.00 | 82 | 1009.3 |
| 20260506151539 | 18 | 70 | 27.4 | 33.8 | 0.00 | 0.00 | 0.00 | 81 | 1009.3 |
| 20260506150038 | 18 | 51 | 25.7 | 32.2 | 0.00 | 0.00 | 0.00 | 79 | 1009.4 |
| 20260506144543 | 18 | 68 | 27.4 | 33.8 | 0.00 | 0.00 | 0.00 | 80 | 1009.5 |
| 20260506143036 | 18 | 59 | 29.0 | 35.4 | 0.00 | 0.00 | 0.00 | 77 | 1009.7 |